Back to catalog

CZ-6A DEB

AlivePO
NORAD 60839·DEBRIS·🇨🇳 China

Launched Aug 6, 2024 from Taiyuan Satellite Launch Center

Loading…

Next Passes (next 24 hours)

TLE

FreshSource: Space-Track

Epoch: Sep 14, 2026, 00:24 UTC

1 60839U 24140HS  26257.01708831  .00000224  00000-0  17332-3 0  9994
2 60839  88.9496 267.1254 0262237  66.4844 296.3640 13.74074826104617

Track CZ-6A DEB in real time with AllMySat

Download on the App Store